User: anonymous   Login
Location: Lawrence Hall of Science
(37.8785°N, 122.2415°W)
Time: 18:35:27
(UTC-08:00)
Language:

Cosmos 1461 - Orbit

View from above orbital plane
View from above orbital plane
View from above satellite
View from above satellite

Ground track
Ground track

The orbit data is extracted from the following two-line orbital elements,

1 14064U 83044A   17052.95087495 +.00000471 +00000-0 +56870-4 0  9998
2 14064 065.0009 281.3004 0084568 091.0512 270.0294 14.93459930706143
Epoch (UTC): 21 February 2017 22:49:15
Eccentricity: 0.0084568
inclination: 65.0009°
perigee height: 528 km
apogee height: 646 km
right ascension of ascending node: 281.3004°
argument of perigee: 91.0512°
revolutions per day: 14.93459930
mean anomaly at epoch: 270.0294°
orbit number at epoch: 70614

The dashed part of the orbit path shows where the satellite is in the earth's shadow,  

DLR